Regional Weather Roundup
Issued by NWS

Home | Current Version | Previous Version | Graphics & Text | Print | Product List | Glossary On
Versions: 1 2 3 4 5 6 7 8 9 10 11 12 13 14 15 16 17 18 19 20 21 22 23 24 25 26 27 28 29 30 31 32 33 34 35 36 37 38 39 40 41 42 43 44 45 46 47 48 49 50
000
ASUS43 KOAX 171510
RWRNE

WEATHER ROUNDUP FOR NEBRASKA
NATIONAL WEATHER SERVICE OMAHA NE
900 AM CST WED DEC 17 2014

NOTES: SATELLITE DATA IS BEING USED TO AUGMENT CLOUD COVER ABOVE
       12000 FEET.
       "FAIR" INDICATES FEW OR NO CLOUDS BELOW 12,000 FEET WITH NO
       SIGNIFICANT WEATHER AND/OR OBSTRUCTIONS TO VISIBILITY.

  * THESE STATIONS DO NOT REPORT WEATHER SUCH AS RAIN...SNOW OR FOG.

NEZ001>004-019>022-054>056-171600-
NEBRASKA PANHANDLE

CITY           SKY/WX    TMP DP  RH WIND       PRES   REMARKS
SCOTTSBLUFF    CLOUDY    13  11  92 CALM      30.01S FOG
ALLIANCE       CLOUDY    21  19  92 S18       30.01F FOG     WCI   6
CHADRON        CLOUDY     6   3  87 S3        30.04F FOG
KIMBALL        CLOUDY    13  12  92 SW3       29.96S
SIDNEY         FOG       19  17  92 S17       30.02S VSB 1/4 WCI   4
$$

NEZ057>060-069>072-079>082-171600-
SOUTHWEST NEBRASKA

CITY           SKY/WX    TMP DP  RH WIND       PRES   REMARKS
NORTH PLATTE   CLOUDY    20  18  92 S8        30.17R WCI  10
IMPERIAL       CLOUDY    22  19  89 S9        30.12F FOG     WCI  12
LEXINGTON      CLOUDY    21  20  95 SE8       30.21S FOG     WCI  12
MCCOOK         CLOUDY    21  19  92 E9        30.18F FOG     WCI  11
OGALLALA       CLOUDY    22  22  96 S8        30.12R FOG     WCI  13
$$

NEZ005>010-023>029-035>040-094-171600-
NORTH CENTRAL NEBRASKA

CITY           SKY/WX    TMP DP  RH WIND       PRES   REMARKS
VALENTINE      CLOUDY    18  16  92 SE13      30.18S FOG     WCI   5
AINSWORTH      CLOUDY    17  16  93 SE6       30.19S FOG     WCI   9
BROKEN BOW     CLOUDY    19  18  95 S9        30.20F FOG     WCI   8
O`NEILL        CLOUDY    18  17  96 SE3       30.26S
ORD            CLOUDY    18  16  92 SE7       30.25F WCI   9
THEDFORD       CLOUDY    20  19  96 S8        30.17R FOG     WCI  11
$$

NEZ041-046>049-061>064-073>077-083>087-171600-
SOUTH CENTRAL NEBRASKA

CITY           SKY/WX    TMP DP  RH WIND       PRES   REMARKS
GRAND ISLAND   CLOUDY    20  17  88 E6        30.29R WCI  12
AURORA         CLOUDY    21  19  89 SE3       30.29R
HASTINGS       CLOUDY    20  17  88 E6        30.26S FOG     WCI  12
HEBRON         CLOUDY    23  18  82 E5        30.31R WCI  16
HOLDREGE       CLOUDY    20  19  95 SE6       30.22S FOG     WCI  13
KEARNEY *      CLOUDY    19  18  93 E8        30.24F WCI   9
YORK           CLOUDY    23  19  86 E6        30.31R WCI  16
$$

NEZ011>018-030>034-042>045-171600-
NORTHEAST NEBRASKA

CITY           SKY/WX    TMP DP  RH WIND       PRES   REMARKS
NORFOLK        CLOUDY    20  15  81 NE5       30.30F WCI  13
ALBION         CLOUDY    20  16  84 CALM      30.28F
BLAIR          PTSUNNY   18  13  83 NE3       30.32F
COLUMBUS *     CLOUDY    19  10  68 E7        30.32F WCI  10
FREMONT        CLOUDY    19  15  82 NE6       30.33F WCI  11
TEKAMAH        MOSUNNY   17  12  80 NW3       30.37R
WAYNE          PTCLDY    14  10  85 CALM      30.34R
$$

NEZ050>053-065>068-078-088>093-171600-
SOUTHEAST NEBRASKA

CITY           SKY/WX    TMP DP  RH WIND       PRES   REMARKS
LINCOLN        CLOUDY    21  15  78 E7        30.35S WCI  12
OMAHA EPPLEY   PTSUNNY   18  12  77 CALM      30.37S
BEATRICE       CLOUDY    22  17  81 NE5       30.33R WCI  15
FALLS CITY     PTSUNNY   20  14  77 E5        30.36R WCI  13
NEBRASKA CITY  PTSUNNY   20  13  74 NE9       30.33S WCI   9
PLATTSMOUTH    PTSUNNY   18  12  79 NE6       30.34F WCI  10
$$

NEZ044-045-051>053-067-171600-
OMAHA AREA

CITY           SKY/WX    TMP DP  RH WIND       PRES   REMARKS
OMAHA EPPLEY   PTSUNNY   18  12  77 CALM      30.37S
BLAIR          PTSUNNY   18  13  83 NE3       30.32F
FREMONT        CLOUDY    19  15  82 NE6       30.33F WCI  11
MILLARD        CLOUDY    21  13  73 E6        30.34F WCI  13
OFFUTT AFB     MOSUNNY   19  12  73 NE5       30.35F WCI  13
PLATTSMOUTH    PTSUNNY   18  12  79 NE6       30.34F WCI  10
WAHOO          CLOUDY    20  15  79 NE3       30.33F
$$


USA.gov is the U.S. government's official web portal to all federal, state and local government web resources and services.